STARLINK-35352, 66177

Orbit data source: Space-Track

STARLINK-35352, 66177 is a payload satellite owned by SpaceX/Seattle (US) in LEO that was launched on Sun, 26 Oct 2025 UTC via an FALCON 9 launch vehicle from the Air Force Eastern Test Range (AFETR). Payload-class satellites include a variety of spacecraft equipped with specific instruments for various scientific and technological missions. These include communications satellites like Starlink; space stations such as the ISS; scientific satellites like the Hubble; Earth observation satellites from companies like Planet Labs, Umbra, and HawkEye 360; GPS; miniature CubeSats for education and research; and military/defense satellites.

Loading next visibility...
Identifier
66177, 2025-243A
Orbit
LEO
Country
Flag of USUS
Related business
Manufacturer
SpaceX/Seattle
Mission
Operational Commercial Communications
Bus & Motor
STARLINK V2MO, Unknown motor
Mass
575 kg wet, ~530 kg dry
Launch date (UTC)
2025-10-26 (4 months ago)
Launch vehicle
FALCON 9
Launch site
Air Force Eastern Test Range (AFETR)
Object type
Payload
Rocket body
Debris
Shape & HBR
Box + 2 Pan, 17.7 m
Radar Cross Section
36.964 m²

Expand to show TLE details & history
Last TLE update: 7 hours ago

TLE from 7 hours ago
0 STARLINK-35352
1 66177U 25243A   26061.76896190  .00042396  00000-0  14335-2 0  9996
2 66177  53.1577 277.4350 0004594  80.1084 280.0435 15.30234805 19595
Epoch: 2026-03-02T18:27Z
TLE epoch observation values (Epoch: 2026-03-02T18:27:18.308Z)
Latitude
-0.00002°
Longitude
-159.94892°
Altitude
475.463 km
Speed
7.63 km/s
True Right ascension
18h 29m 44s
True Declination
0° 00' 00"
Sunlit
Object was in daylight at epoch
Visualization orbit readout
Latitude
Unknown
Longitude
Unknown
Altitude
Unknown
Speed
Unknown
Apparent Right ascension
Unknown
Apparent Declination
Unknown
Sunlit
N/A
Visualization observer readout
Local Sidereal Time
05:26:21
Azimuth
Unknown
Elevation
Unknown
Doppler factor
Unknown
Orbital elements
Apogee altitude
478.516 km
Perigee altitude
472.219 km
Semi-major axis
6,853.505 km
Eccentricity
0.00046
Inclination
53.1577°
RAAN
277.435°
Arg. of periapsis
80.1084°
True anomaly
279.99166°
Mean anomaly
280.0435°
Eccentric anomaly
280.01758°
Mean motion
3.82538 °/min
Orbital period
94.11 mins
BSTAR
0.0014335
Loading maneuver chart data...
Computing Atmospheric mass density...
Loading historical data...
Loading historical data...
Loading historical data...
Loading historical data...
Loading historical data...
Loading historical data...
Loading historical data...

Documentation

Showing up to 5 results
|